Dewpoint
69 69 69 69 70 70 71 71 70 71 70 69 69 68 68 66 67 70 71 71 71 70 70 70 71 70 71 70 70 70 69 67 63 66 69 71 71 71 71 72 70 72 72
70 69 69 69 69 70 70 71 72 71 70 69 69 69 67 66 67 71 71 69 69 69 69 70 69 71 69 70 71 70 69 68 69 66 68 69 68 69 71 71 72 73 72
70 70 69 69 70 70 71 70 71 72 72 70 70 69 67 68 69 71 72 71 70 70 71 70 69 71 71 71 69 70 70 70 69 69 68 69 69 69 70 72 72 71 74
70 69 69 69 70 69 70 71 71 72 71 72 71 71 70 71 72 72 72 71 71 70 71 71 71 71 71 70 71 70 69 69 69 68 68 68 67 68 69 68 70 71 70
69 69 69 70 71 69 69 69 72 73 73 73 73 72 73 72 71 71 72 71 71 71 72 72 71 71 71 71 71 71 70 69 68 68 68 67 67 66 67 69 68 69 69
69 69 69 71 70 70 72 72 72 73 72 73 73 71 72 72 68 68 71 71 71 71 70 71 71 70 71 69 68 68 70 70 67 67 67 67 67 67 69 68 67 65 65
71 70 70 71 71 72 72 72 71 72 72 72 72 72 71 72 69 67 68 69 71 70 70 70 71 69 69 69 68 67 67 67 67 68 67 66 66 67 68 66 67 67 66
72 72 72 72 72 73 73 73 72 72 72 71 71 71 71 71 67 66 67 68 70 70 70 71 70 70 69 68 69 69 69 70 70 69 68 69 68 70 70 69 67 67 67
73 73 73 73 72 72 72 72 72 71 71 71 71 71 70 69 65 65 66 69 69 68 69 67 68 67 62 62 67 67 67 68 69 66 65 66 65 65 67 69 68 67 66
72 72 73 72 72 71 71 71 72 71 71 72 71 69 67 65 62 62 64 68 67 68 68 64 62 64 60 61 66 66 66 66 64 65 67 67 65 66 66 68 69 67 66
72 72 71 71 70 70 70 71 71 70 70 70 69 69 68 64 60 58 59 65 65 65 66 65 61 57 56 56 58 63 62 60 61 62 64 66 67 69 69 68 69 69 67
71 69 68 69 69 69 70 69 69 69 68 68 68 67 65 62 59 57 57 56 59 63 62 64 58 55 54 56 57 56 57 60 62 62 62 63 62 62 64 64 64 66 66
69 68 67 69 68 67 67 68 68 68 68 67 66 66 64 62 58 56 56 57 57 62 62 58 55 53 54 57 57 58 58 58 58 58 57 57 58 59 60 60 61 61 62
69 68 68 67 67 67 68 68 67 67 65 64 65 64 64 63 61 61 60 59 58 59 58 58 58 57 58 59 59 59 58 57 56 56 56 56 58 58 58 59 59 60 60
68 68 68 67 66 59 55 53 60 54 57 64 64 65 64 63 62 58 60 62 61 60 62 60 60 60 60 59 59 59 58 58 57 56 54 57 57 58 59 60 60 59 59
67 67 66 66 65 60 59 56 50 49 48 48 49 57 56 53 49 48 47 49 49 53 60 62 62 62 60 61 60 60 58 58 57 57 56 54 57 57 57 58 60 59 59
66 66 65 64 65 63 61 59 57 53 48 47 47 48 51 51 47 46 47 47 48 54 59 62 61 61 61 61 61 59 57 59 58 58 55 57 56 55 55 56 57 57 57
68 62 63 63 64 63 62 61 60 57 56 55 48 49 46 46 45 45 47 50 56 55 59 61 61 61 62 62 61 60 58 57 58 58 59 58 57 54 54 54 55 55 55
65 64 62 62 62 61 61 62 60 59 59 58 53 51 47 45 45 46 47 56 59 59 60 61 61 61 61 61 61 60 60 59 58 59 59 59 56 55 54 55 55 53 53
64 62 61 62 60 60 60 59 60 60 61 58 57 57 55 53 55 55 55 57 59 61 62 61 62 61 61 60 59 61 60 59 59 60 59 59 58 56 56 54 53 52 52
60 60 61 62 59 58 57 57 59 60 60 61 59 59 54 58 58 59 59 59 61 62 61 62 61 61 61 61 60 59 58 58 58 58 58 59 59 56 56 57 54 52 52
59 63 63 59 58 57 57 58 57 59 59 60 60 58 50 59 60 60 60 61 62 62 62 62 62 61 62 60 60 60 60 59 59 59 58 58 58 58 57 56 55 53 52
63 64 62 57 57 56 56 56 53 55 56 59 60 58 56 58 59 58 61 62 62 62 63 62 59 55 58 60 60 58 54 58 60 60 59 58 58 58 57 56 55 53 53
65 62 57 55 56 58 56 54 54 52 55 58 58 58 58 58 57 55 60 61 61 62 61 59 57 56 54 56 56 55 53 52 57 59 58 57 55 54 53 52 51 50 49
58 56 55 55 56 56 57 56 53 53 53 56 55 55 55 52 51 53 59 58 56 55 54 55 54 53 51 54 54 55 50 46 50 49 52 50 51 52 52 50 49 49 49
55 55 55 56 56 56 57 56 53 52 53 53 52 52 52 50 51 52 51 51 53 52 52 54 54 53 51 49 46 45 35 36 44 41 52 53 51 50 50 50 50 50 50
Lifted_Index
-4 -4 -4 -4 -4 -4 -4 -4 -4 -4 -4 -3 -3 -3 -2 -1 -1 -2 -3 -4 -3 -3 -4 -4 -4 -4 -4 -4 -4 -4 -3 -3 -3 -3 -3 -3 -3 -3 -3 -3 -3 -4 -4
-5 -5 -4 -4 -4 -4 -4 -5 -5 -4 -4 -3 -3 -3 -2 -1 -1 -2 -3 -4 -3 -3 -3 -4 -4 -4 -4 -4 -4 -4 -4 -3 -3 -3 -3 -3 -3 -3 -3 -4 -4 -4 -4
-6 -5 -5 -5 -5 -5 -5 -5 -5 -5 -4 -4 -3 -3 -3 -2 -2 -3 -4 -4 -4 -3 -4 -4 -4 -4 -5 -5 -5 -4 -4 -4 -3 -4 -4 -3 -3 -3 -3 -4 -4 -4 -5
-6 -6 -6 -5 -5 -5 -5 -5 -5 -5 -5 -4 -4 -4 -4 -4 -4 -4 -4 -4 -4 -4 -4 -5 -5 -5 -5 -5 -5 -4 -4 -4 -3 -3 -3 -3 -3 -3 -3 -3 -4 -4 -4
-7 -6 -6 -6 -5 -5 -5 -5 -5 -5 -5 -5 -5 -4 -5 -5 -5 -5 -5 -5 -5 -5 -5 -5 -5 -5 -5 -5 -4 -4 -4 -4 -3 -3 -3 -3 -3 -3 -3 -3 -3 -3 -3
-6 -6 -6 -6 -5 -5 -5 -5 -5 -5 -5 -5 -5 -5 -5 -5 -5 -5 -5 -5 -5 -5 -5 -5 -5 -4 -4 -4 -4 -4 -4 -3 -3 -3 -3 -3 -3 -3 -3 -3 -3 -3 -3
-6 -6 -6 -6 -5 -6 -5 -5 -5 -5 -5 -5 -5 -5 -5 -5 -5 -5 -5 -4 -4 -4 -4 -4 -4 -4 -4 -3 -3 -3 -3 -3 -3 -3 -3 -3 -3 -3 -3 -2 -2 -2 -2
-7 -7 -6 -6 -6 -6 -6 -6 -5 -5 -5 -5 -5 -5 -5 -5 -5 -5 -4 -4 -4 -4 -4 -3 -3 -3 -3 -3 -2 -2 -2 -2 -3 -3 -3 -3 -3 -3 -3 -2 -2 -2 -2
-7 -7 -7 -6 -6 -6 -6 -5 -5 -5 -5 -5 -5 -5 -4 -5 -4 -4 -4 -4 -3 -3 -3 -3 -2 -2 -2 -2 -1 -1 -1 -1 -2 -2 -2 -2 -2 -2 -2 -2 -2 -2 -2
-7 -7 -7 -6 -6 -5 -5 -5 -5 -4 -4 -4 -4 -4 -4 -4 -4 -3 -3 -3 -2 -2 -2 -2 -2 -1 -1 -1 -0 -0 -0 -0 -0 -0 -1 -1 -1 -2 -2 -2 -2 -2 -2
-8 -7 -6 -6 -5 -5 -4 -4 -4 -4 -3 -3 -3 -3 -2 -2 -2 -2 -2 -1 -1 -1 -0 -0 -0 -0 0 1 1 1 2 2 2 1 1 1 0 -0 -1 -1 -2 -2 -2
-8 -7 -5 -5 -4 -4 -3 -3 -3 -3 -3 -2 -2 -2 -1 -0 0 0 0 1 1 1 1 1 2 2 3 3 4 4 5 5 4 4 3 3 2 1 0 -0 -1 -1 -2
-7 -6 -5 -4 -3 -3 -3 -3 -3 -3 -2 -2 -2 -1 -0 1 2 2 2 2 2 2 2 3 4 5 5 6 7 7 8 7 7 6 5 4 3 2 1 1 0 -0 -0
-7 -6 -4 -3 -3 -2 -2 -2 -2 -2 -2 -1 -1 -1 0 1 2 2 2 3 3 3 3 4 5 6 6 7 8 8 8 8 7 7 6 4 3 3 2 2 2 2 1
-6 -6 -5 -4 -3 -2 -2 -2 -1 -1 -0 -0 0 0 1 1 1 2 2 3 3 4 4 5 5 6 6 6 7 7 7 7 7 6 5 4 3 3 3 3 3 3 3
-6 -6 -5 -4 -3 -2 -2 -1 -1 -0 0 1 1 1 1 1 1 2 2 3 3 4 4 5 5 5 5 5 5 6 6 5 5 5 4 4 3 3 3 3 3 3 3
-6 -5 -4 -3 -3 -2 -1 -1 -0 0 1 2 2 2 2 2 2 2 3 3 4 4 4 4 4 4 4 4 4 5 5 4 4 3 3 3 3 3 3 3 3 3 3
-5 -5 -3 -2 -2 -1 -1 -0 0 1 2 3 3 3 3 3 3 3 3 4 4 4 4 4 4 4 4 4 4 4 4 4 3 3 2 2 2 2 3 3 3 3 3
-5 -4 -2 -1 -1 -1 -0 0 0 1 2 3 3 3 3 3 4 4 4 4 4 4 3 3 3 3 3 4 4 4 4 4 3 3 2 2 2 2 2 2 2 3 3
-3 -2 -1 -1 -0 0 1 1 0 0 1 2 3 3 3 4 4 4 4 3 3 3 2 2 2 2 3 3 3 4 4 4 3 3 3 2 2 2 2 2 3 3 3
-0 -1 -1 -1 -0 1 1 1 1 0 1 1 2 3 3 3 4 3 3 3 2 2 1 1 1 1 2 2 3 3 3 3 3 3 3 3 2 2 3 3 3 3 3
-1 -1 -1 -1 -0 1 1 1 1 1 0 1 1 2 2 2 3 2 2 1 1 1 1 1 1 1 1 2 2 3 3 2 2 2 3 3 3 3 3 3 3 3 3
-2 -2 -1 0 1 1 1 1 1 1 1 0 0 1 1 1 2 2 1 1 0 0 0 0 1 2 2 2 2 2 3 2 2 2 2 2 2 2 3 3 3 3 3
-3 -2 -0 1 1 1 1 1 1 2 1 1 1 1 1 2 2 2 1 1 0 0 0 1 2 2 3 2 2 2 3 3 3 2 2 3 3 3 3 3 3 4 4
-2 -1 0 1 1 1 1 1 1 2 2 1 1 1 2 2 3 3 2 1 1 1 2 2 3 3 3 2 2 2 2 3 3 3 3 4 4 4 4 4 4 4 4
-1 -0 0 1 1 1 0 0 1 2 2 2 2 2 2 3 3 3 2 2 2 2 3 3 3 3 3 2 2 2 2 2 3 4 4 4 4 4 4 4 4 3 3